Weather History for KENW - February, 2013

Change the Weather History Date:

Friday, February 22, 2013

  Actual Average (KRAC) Record (KRAC)
Temperature  
Mean Temperature 29 °F -  
Max Temperature 32 °F 36 °F 62 °F (1984)
Min Temperature 26 °F 21 °F -5 °F (1963)
Degree Days  
Heating Degree Days 36    
Moisture  
Dew Point 24 °F    
Average Humidity 86    
Maximum Humidity 93    
Minimum Humidity 78    
Precipitation  
Precipitation 0.07 in - - ()
Sea Level Pressure  
Sea Level Pressure 29.89 in    
Wind  
Wind Speed 18 mph (SE)    
Max Wind Speed 28 mph    
Max Gust Speed 33 mph    
Visibility 3 miles    
Events Fog , Snow    
Averages and records for this station are not official NWS values.
T = Trace of Precipitation, MM = Missing Value Source: NWS Daily Summary

Daily Weather History Graph

Daily Weather History Graph

Search for Another Location

Airport or City:

Trip Planner

Search our weather history database for the weather conditions in past years. The results will help you decide how hot, cold, wet, or windy it might be!

Date:

Astronomy

Feb. 22, 2013 Rise Set
Actual Time 6:37 AM CST 5:33 PM CST
Civil Twilight 6:09 AM CST 6:01 PM CST
Nautical Twilight 5:36 AM CST 6:34 PM CST
Astronomical Twilight 5:04 AM CST 7:07 PM CST
Moon 2:41 PM CST (2/22) 4:25 AM CST (2/22)
Length of Visible Light 11h 52m
Length of Day
10h 55m
Waxing Gibbous, 90% of the Moon is Illuminated
Feb 22
Waxing Gibbous
Feb 25
Full
Mar 4
Last Quarter
Mar 11
New
Mar 19
First Quarter

Hourly Weather History & Observations

Time (CST) Temp. Windchill Dew Point Humidity Pressure Visibility Wind Dir Wind Speed Gust Speed Precip Events Conditions
12:18 AM 26.6 °F 12.0 °F 21.2 °F 80% 30.03 in 1.5 mi East 23.0 mph 28.8 mph 0.00 in Snow Light Snow
12:50 AM 26.6 °F 12.7 °F 23.0 °F 86% 30.01 in 0.5 mi East 20.7 mph 27.6 mph 0.01 in Fog , Snow Snow
12:53 AM 26.1 °F 11.6 °F 23.0 °F 88% 30.04 in 0.5 mi East 21.9 mph 27.6 mph 0.01 in Fog , Snow Snow
1:18 AM 26.6 °F 13.4 °F 23.0 °F 86% 29.99 in 0.2 mi East 18.4 mph - 0.01 in Fog , Snow Snow
1:28 AM 26.6 °F 12.0 °F 23.0 °F 86% 29.98 in 0.5 mi East 23.0 mph 31.1 mph 0.01 in Fog , Snow Light Snow
1:44 AM 26.6 °F 11.7 °F 23.0 °F 86% 29.97 in 0.2 mi East 24.2 mph 29.9 mph 0.01 in Fog , Snow Snow
1:53 AM 26.1 °F 10.1 °F 23.0 °F 88% 29.99 in 0.2 mi East 27.6 mph 33.4 mph 0.01 in Fog , Snow Snow
2:03 AM 26.6 °F 12.0 °F 23.0 °F 86% 29.95 in 0.2 mi East 23.0 mph 32.2 mph 0.01 in Fog , Snow Snow
2:33 AM 26.6 °F 12.0 °F 23.0 °F 86% 29.93 in 0.5 mi East 23.0 mph 31.1 mph 0.02 in Fog , Snow Snow
2:36 AM 26.6 °F 12.4 °F 23.0 °F 86% 29.93 in 0.2 mi East 21.9 mph 31.1 mph 0.02 in Fog , Snow Snow
2:51 AM 26.6 °F 11.4 °F 23.0 °F 86% 29.92 in 0.2 mi East 25.3 mph 31.1 mph 0.02 in Fog , Snow Snow
2:53 AM 26.1 °F 12.0 °F 23.0 °F 88% 29.96 in 0.2 mi East 20.7 mph 31.1 mph 0.02 in Fog , Snow Snow
3:04 AM 26.6 °F 13.1 °F 24.8 °F 93% 29.92 in 0.5 mi ESE 19.6 mph 27.6 mph 0.00 in Fog , Snow Snow
3:53 AM 26.1 °F 12.3 °F 23.0 °F 88% 29.94 in 0.5 mi ESE 19.6 mph 26.5 mph 0.01 in Fog , Snow Light Snow
4:15 AM 26.6 °F 12.7 °F 24.8 °F 93% 29.91 in 0.2 mi ESE 20.7 mph 26.5 mph 0.00 in Fog , Snow Heavy Snow
4:25 AM 26.6 °F 13.8 °F 24.8 °F 93% 29.91 in 0.5 mi ESE 17.3 mph - 0.00 in Fog , Snow Light Snow
4:48 AM 26.6 °F 14.3 °F 24.8 °F 93% 29.90 in 1.0 mi ESE 16.1 mph 26.5 mph 0.00 in Snow Light Snow
4:53 AM 27.0 °F 15.6 °F 24.1 °F 89% 29.93 in 1.2 mi ESE 13.8 mph 23.0 mph 0.00 in Snow Light Snow
5:00 AM 26.6 °F 14.3 °F 24.8 °F 93% 29.90 in 1.2 mi ESE 16.1 mph 21.9 mph 0.00 in Snow Light Snow
5:13 AM 26.6 °F 15.7 °F 24.8 °F 93% 29.89 in 2.5 mi ESE 12.7 mph 23.0 mph 0.00 in Snow Light Snow
5:30 AM 26.6 °F 14.7 °F 23.0 °F 86% 29.88 in 3.0 mi ESE 15.0 mph - 0.00 in Snow Light Snow
5:38 AM 26.6 °F 13.8 °F 23.0 °F 86% 29.87 in 5.0 mi ESE 17.3 mph - 0.00 in   Overcast
5:53 AM 27.0 °F 16.1 °F 23.0 °F 85% 29.90 in 4.0 mi ESE 12.7 mph - 0.00 in   Overcast
6:18 AM 26.6 °F 15.7 °F 21.2 °F 80% 29.86 in 10.0 mi ESE 12.7 mph 19.6 mph N/A   Overcast
6:53 AM 28.0 °F 17.0 °F 23.0 °F 81% 29.88 in 8.0 mi SE 13.8 mph - N/A   Overcast
7:53 AM 28.0 °F 16.1 °F 23.0 °F 81% 29.87 in 10.0 mi SE 16.1 mph - N/A   Overcast
8:53 AM 28.0 °F 17.5 °F 24.1 °F 85% 29.86 in 4.0 mi SE 12.7 mph - 0.00 in Snow Light Snow
9:14 AM 28.4 °F 19.7 °F 24.8 °F 86% 29.82 in 1.5 mi SSE 9.2 mph - 0.00 in Snow Light Snow
9:53 AM 28.0 °F 19.3 °F 25.0 °F 88% 29.85 in 1.5 mi SE 9.2 mph - 0.00 in   Overcast
10:00 AM 28.4 °F 18.5 °F 24.8 °F 86% 29.82 in 2.0 mi SSE 11.5 mph - N/A   Overcast
10:53 AM 28.0 °F 22.8 °F 26.1 °F 92% 29.85 in 0.5 mi SSE 4.6 mph - 0.00 in Fog , Snow Light Snow
11:53 AM 28.9 °F 22.8 °F 26.1 °F 89% 29.85 in 1.0 mi South 5.8 mph - 0.01 in   Overcast
12:53 PM 30.0 °F 23.2 °F 27.0 °F 88% 29.82 in 1.0 mi SSW 6.9 mph - 0.01 in Snow Light Snow
1:53 PM 32.0 °F 25.6 °F 27.0 °F 82% 29.81 in 2.0 mi SSW 6.9 mph - 0.00 in Snow Light Snow
2:07 PM 32.0 °F 24.2 °F 26.6 °F 80% 29.78 in 3.0 mi SSW 9.2 mph - 0.00 in   Haze
2:53 PM 32.0 °F 25.6 °F 27.0 °F 82% 29.82 in 6.0 mi SW 6.9 mph - 0.00 in   Haze
3:05 PM 32.0 °F 24.8 °F 28.4 °F 87% 29.79 in 5.0 mi WSW 8.1 mph - N/A   Overcast
3:53 PM 32.0 °F 23.6 °F 27.0 °F 82% 29.83 in 6.0 mi WSW 10.4 mph - N/A   Haze
4:53 PM 32.0 °F 23.0 °F 28.0 °F 85% 29.83 in 3.0 mi WSW 11.5 mph - 0.00 in   Overcast
5:53 PM 32.0 °F 22.1 °F 27.0 °F 82% 29.85 in 7.0 mi West 13.8 mph - N/A   Overcast
6:53 PM 30.9 °F 21.2 °F 26.1 °F 82% 29.86 in 8.0 mi WSW 12.7 mph - N/A   Overcast
7:53 PM 30.0 °F 21.1 °F 25.0 °F 82% 29.87 in 5.0 mi West 10.4 mph - N/A   Haze
8:53 PM 30.0 °F 20.5 °F 25.0 °F 82% 29.88 in 5.0 mi WSW 11.5 mph - N/A   Haze
9:39 PM 28.4 °F 18.0 °F 24.8 °F 86% 29.84 in 5.0 mi WSW 12.7 mph 19.6 mph N/A   Overcast
9:53 PM 28.9 °F 18.6 °F 24.1 °F 82% 29.87 in 5.0 mi WSW 12.7 mph - N/A   Haze
10:12 PM 28.4 °F 18.5 °F 24.8 °F 86% 29.85 in 5.0 mi WSW 11.5 mph - N/A   Haze
10:53 PM 28.9 °F 18.6 °F 24.1 °F 82% 29.88 in 5.0 mi WSW 12.7 mph - N/A   Haze
11:53 PM 28.9 °F 18.6 °F 23.0 °F 78% 29.87 in 5.0 mi WSW 12.7 mph - N/A   Haze